Time,TemperatureF,DewpointF,PressureIn,WindDirection,WindDirectionDegrees,WindSpeedMPH,WindSpeedGustMPH,Humidity,HourlyPrecipIn,Conditions,Clouds,dailyrainin,SoftwareType,DateUTC
2013-06-06 00:00:00,44.0,41.0,29.80,WSW,249,6.0,13.0,91,0.01,,,0.50,,2013-06-06 08:00:00,
2013-06-06 00:32:00,44.0,41.0,29.80,WSW,249,6.0,13.0,91,0.01,,,0.50,,2013-06-06 08:32:00,
2013-06-06 00:42:00,44.0,41.0,29.80,WSW,249,6.0,13.0,91,0.01,,,0.50,,2013-06-06 08:42:00,
2013-06-06 00:52:00,44.0,41.0,29.80,WSW,249,6.0,13.0,91,0.01,,,0.50,,2013-06-06 08:52:00,
2013-06-06 01:00:00,44.0,41.0,29.80,WSW,243,5.0,10.0,91,0.00,,,0.49,,2013-06-06 09:00:00,
2013-06-06 01:33:00,44.0,41.0,29.80,WSW,243,5.0,10.0,91,0.00,,,0.49,,2013-06-06 09:33:00,
2013-06-06 01:43:00,44.0,41.0,29.80,WSW,243,5.0,10.0,91,0.00,,,0.49,,2013-06-06 09:43:00,
2013-06-06 01:53:00,44.0,41.0,29.80,WSW,243,5.0,10.0,91,0.00,,,0.49,,2013-06-06 09:53:00,
2013-06-06 02:00:00,43.0,42.0,29.81,WSW,244,5.0,14.0,95,0.01,,,0.48,,2013-06-06 10:00:00,
2013-06-06 02:33:00,43.0,42.0,29.81,WSW,244,5.0,14.0,95,0.01,,,0.48,,2013-06-06 10:33:00,
2013-06-06 02:42:00,43.0,42.0,29.81,WSW,244,5.0,14.0,95,0.01,,,0.48,,2013-06-06 10:42:00,
2013-06-06 02:53:00,43.0,42.0,29.81,WSW,244,5.0,14.0,95,0.01,,,0.48,,2013-06-06 10:53:00,
2013-06-06 03:00:00,43.0,42.0,29.81,WSW,241,5.0,12.0,96,0.02,,,0.50,,2013-06-06 11:00:00,
2013-06-06 03:32:00,43.0,42.0,29.81,WSW,241,5.0,12.0,96,0.02,,,0.50,,2013-06-06 11:32:00,
2013-06-06 03:42:00,43.0,42.0,29.81,WSW,241,5.0,12.0,96,0.02,,,0.50,,2013-06-06 11:42:00,
2013-06-06 03:52:00,43.0,42.0,29.81,WSW,241,5.0,12.0,96,0.02,,,0.50,,2013-06-06 11:52:00,
2013-06-06 04:00:00,43.0,42.0,29.81,WSW,248,4.0,10.0,97,0.01,,,0.51,,2013-06-06 12:00:00,
2013-06-06 04:33:00,43.0,42.0,29.81,WSW,248,4.0,10.0,97,0.01,,,0.51,,2013-06-06 12:33:00,
2013-06-06 04:43:00,43.0,42.0,29.81,WSW,248,4.0,10.0,97,0.01,,,0.51,,2013-06-06 12:43:00,
2013-06-06 04:53:00,43.0,42.0,29.81,WSW,248,4.0,10.0,97,0.01,,,0.51,,2013-06-06 12:53:00,
2013-06-06 05:00:00,43.0,42.0,29.81,SW,224,4.0,8.0,97,0.01,,,0.51,,2013-06-06 13:00:00,
2013-06-06 05:33:00,43.0,42.0,29.81,SW,224,4.0,8.0,97,0.01,,,0.51,,2013-06-06 13:33:00,
2013-06-06 05:43:00,43.0,42.0,29.81,SW,224,4.0,8.0,97,0.01,,,0.51,,2013-06-06 13:43:00,
2013-06-06 05:53:00,43.0,42.0,29.81,SW,224,4.0,8.0,97,0.01,,,0.51,,2013-06-06 13:53:00,
2013-06-06 06:00:00,43.0,42.0,29.81,SW,228,3.0,8.0,97,0.01,,,0.52,,2013-06-06 14:00:00,
2013-06-06 06:33:00,43.0,42.0,29.81,SW,228,3.0,8.0,97,0.01,,,0.52,,2013-06-06 14:33:00,
2013-06-06 06:43:00,43.0,42.0,29.81,SW,228,3.0,8.0,97,0.01,,,0.52,,2013-06-06 14:43:00,
2013-06-06 06:53:00,43.0,42.0,29.81,SW,228,3.0,8.0,97,0.01,,,0.52,,2013-06-06 14:53:00,
2013-06-06 07:00:00,44.0,43.0,29.81,SW,226,3.0,8.0,96,0.01,,,0.51,,2013-06-06 15:00:00,
2013-06-06 07:33:00,44.0,43.0,29.81,SW,226,3.0,8.0,96,0.01,,,0.51,,2013-06-06 15:33:00,
2013-06-06 07:43:00,44.0,43.0,29.81,SW,226,3.0,8.0,96,0.01,,,0.51,,2013-06-06 15:43:00,
2013-06-06 07:53:00,44.0,43.0,29.81,SW,226,3.0,8.0,96,0.01,,,0.51,,2013-06-06 15:53:00,
2013-06-06 08:00:00,45.0,44.0,29.81,SW,235,3.0,9.0,97,0.01,,,0.49,,2013-06-06 16:00:00,
2013-06-06 08:33:00,45.0,44.0,29.81,SW,235,3.0,9.0,97,0.01,,,0.49,,2013-06-06 16:33:00,
2013-06-06 08:44:00,45.0,44.0,29.81,SW,235,3.0,9.0,97,0.01,,,0.49,,2013-06-06 16:44:00,
2013-06-06 08:53:00,45.0,44.0,29.81,SW,235,3.0,9.0,97,0.01,,,0.49,,2013-06-06 16:53:00,
2013-06-06 09:00:00,49.0,47.0,29.81,SW,225,3.0,6.0,92,0.00,,,0.41,,2013-06-06 17:00:00,
2013-06-06 09:33:00,49.0,47.0,29.81,SW,225,3.0,6.0,92,0.00,,,0.41,,2013-06-06 17:33:00,
2013-06-06 09:43:00,49.0,47.0,29.81,SW,225,3.0,6.0,92,0.00,,,0.41,,2013-06-06 17:43:00,
2013-06-06 09:53:00,49.0,47.0,29.81,SW,225,3.0,6.0,92,0.00,,,0.41,,2013-06-06 17:53:00,
2013-06-06 10:00:00,51.0,47.0,29.81,SW,235,3.0,8.0,87,0.00,,,0.35,,2013-06-06 18:00:00,
2013-06-06 10:33:00,51.0,47.0,29.81,SW,235,3.0,8.0,87,0.00,,,0.35,,2013-06-06 18:33:00,
2013-06-06 10:43:00,51.0,47.0,29.81,SW,235,3.0,8.0,87,0.00,,,0.35,,2013-06-06 18:43:00,
2013-06-06 10:53:00,51.0,47.0,29.81,SW,235,3.0,8.0,87,0.00,,,0.35,,2013-06-06 18:53:00,
2013-06-06 11:00:00,51.0,45.0,29.81,SW,233,5.0,11.0,81,0.00,,,0.30,,2013-06-06 19:00:00,
2013-06-06 11:33:00,51.0,45.0,29.81,SW,233,5.0,11.0,81,0.00,,,0.30,,2013-06-06 19:33:00,
2013-06-06 11:43:00,51.0,45.0,29.81,SW,233,5.0,11.0,81,0.00,,,0.30,,2013-06-06 19:43:00,
2013-06-06 11:53:00,51.0,45.0,29.81,SW,233,5.0,11.0,81,0.00,,,0.30,,2013-06-06 19:53:00,
2013-06-06 12:00:00,55.0,46.0,29.80,SW,231,6.0,14.0,71,0.00,,,0.25,,2013-06-06 20:00:00,
2013-06-06 12:33:00,55.0,46.0,29.80,SW,231,6.0,14.0,71,0.00,,,0.25,,2013-06-06 20:33:00,
2013-06-06 12:43:00,55.0,46.0,29.80,SW,231,6.0,14.0,71,0.00,,,0.25,,2013-06-06 20:43:00,
2013-06-06 12:53:00,55.0,46.0,29.80,SW,231,6.0,14.0,71,0.00,,,0.25,,2013-06-06 20:53:00,
2013-06-06 13:00:00,55.0,41.0,29.79,SW,227,6.0,14.0,60,0.00,,,0.23,,2013-06-06 21:00:00,
2013-06-06 13:33:00,55.0,41.0,29.79,SW,227,6.0,14.0,60,0.00,,,0.23,,2013-06-06 21:33:00,
2013-06-06 13:44:00,55.0,41.0,29.79,SW,227,6.0,14.0,60,0.00,,,0.23,,2013-06-06 21:44:00,
2013-06-06 13:53:00,55.0,41.0,29.79,SW,227,6.0,14.0,60,0.00,,,0.23,,2013-06-06 21:53:00,
2013-06-06 14:00:00,46.0,44.0,29.79,WNW,290,5.0,14.0,93,0.10,,,0.33,,2013-06-06 22:00:00,
2013-06-06 14:33:00,46.0,44.0,29.79,WNW,290,5.0,14.0,93,0.10,,,0.33,,2013-06-06 22:33:00,
2013-06-06 14:43:00,46.0,44.0,29.79,WNW,290,5.0,14.0,93,0.10,,,0.33,,2013-06-06 22:43:00,
2013-06-06 14:53:00,46.0,44.0,29.79,WNW,290,5.0,14.0,93,0.10,,,0.33,,2013-06-06 22:53:00,
2013-06-06 15:00:00,52.0,45.0,29.78,West,271,5.0,14.0,78,0.00,,,0.32,,2013-06-06 23:00:00,
2013-06-06 15:33:00,52.0,45.0,29.78,West,271,5.0,14.0,78,0.00,,,0.32,,2013-06-06 23:33:00,
2013-06-06 15:43:00,52.0,45.0,29.78,West,271,5.0,14.0,78,0.00,,,0.32,,2013-06-06 23:43:00,
2013-06-06 15:52:00,52.0,45.0,29.78,West,271,5.0,14.0,78,0.00,,,0.32,,2013-06-06 23:52:00,
2013-06-06 16:00:00,55.0,41.0,29.78,West,267,6.0,16.0,59,0.00,,,0.19,,2013-06-07 00:00:00,
2013-06-06 16:32:00,55.0,41.0,29.78,West,267,6.0,16.0,59,0.00,,,0.19,,2013-06-07 00:32:00,
2013-06-06 16:42:00,55.0,41.0,29.78,West,267,6.0,16.0,59,0.00,,,0.19,,2013-06-07 00:42:00,
2013-06-06 16:52:00,55.0,41.0,29.78,West,267,6.0,16.0,59,0.00,,,0.19,,2013-06-07 00:52:00,
2013-06-06 17:00:00,56.0,40.0,29.78,West,262,5.0,16.0,54,0.00,,,0.19,,2013-06-07 01:00:00,
2013-06-06 17:33:00,56.0,40.0,29.78,West,262,5.0,16.0,54,0.00,,,0.19,,2013-06-07 01:33:00,
2013-06-06 17:42:00,56.0,40.0,29.78,West,262,5.0,16.0,54,0.00,,,0.19,,2013-06-07 01:42:00,
2013-06-06 17:52:00,56.0,40.0,29.78,West,262,5.0,16.0,54,0.00,,,0.19,,2013-06-07 01:52:00,
2013-06-06 18:00:00,54.0,40.0,29.77,WSW,255,4.0,12.0,58,0.00,,,0.19,,2013-06-07 02:00:00,
2013-06-06 18:32:00,54.0,40.0,29.77,WSW,255,4.0,12.0,58,0.00,,,0.19,,2013-06-07 02:32:00,
2013-06-06 18:42:00,54.0,40.0,29.77,WSW,255,4.0,12.0,58,0.00,,,0.19,,2013-06-07 02:42:00,
2013-06-06 18:52:00,54.0,40.0,29.77,WSW,255,4.0,12.0,58,0.00,,,0.19,,2013-06-07 02:52:00,
2013-06-06 19:00:00,56.0,42.0,29.76,WSW,253,3.0,8.0,59,0.00,,,0.19,,2013-06-07 03:00:00,
2013-06-06 19:33:00,56.0,42.0,29.76,WSW,253,3.0,8.0,59,0.00,,,0.19,,2013-06-07 03:33:00,
2013-06-06 19:44:00,56.0,42.0,29.76,WSW,253,3.0,8.0,59,0.00,,,0.19,,2013-06-07 03:44:00,
2013-06-06 19:53:00,56.0,42.0,29.76,WSW,253,3.0,8.0,59,0.00,,,0.19,,2013-06-07 03:53:00,
2013-06-06 20:00:00,52.0,43.0,29.76,WSW,253,3.0,9.0,72,0.00,,,0.19,,2013-06-07 04:00:00,
2013-06-06 20:33:00,52.0,43.0,29.76,WSW,253,3.0,9.0,72,0.00,,,0.19,,2013-06-07 04:33:00,
2013-06-06 20:42:00,52.0,43.0,29.76,WSW,253,3.0,9.0,72,0.00,,,0.19,,2013-06-07 04:42:00,
2013-06-06 20:53:00,52.0,43.0,29.76,WSW,253,3.0,9.0,72,0.00,,,0.19,,2013-06-07 04:53:00,
2013-06-06 21:00:00,51.0,39.0,29.76,West,265,3.0,7.0,64,0.00,,,0.19,,2013-06-07 05:00:00,
2013-06-06 21:32:00,51.0,39.0,29.76,West,265,3.0,7.0,64,0.00,,,0.19,,2013-06-07 05:32:00,
2013-06-06 21:42:00,51.0,39.0,29.76,West,265,3.0,7.0,64,0.00,,,0.19,,2013-06-07 05:42:00,
2013-06-06 21:52:00,51.0,39.0,29.76,West,265,3.0,7.0,64,0.00,,,0.19,,2013-06-07 05:52:00,
2013-06-06 22:00:00,50.0,40.0,29.77,West,281,2.0,5.0,69,0.00,,,0.19,,2013-06-07 06:00:00,
2013-06-06 22:32:00,50.0,40.0,29.77,West,281,2.0,5.0,69,0.00,,,0.19,,2013-06-07 06:32:00,
2013-06-06 22:43:00,50.0,40.0,29.77,West,281,2.0,5.0,69,0.00,,,0.19,,2013-06-07 06:43:00,
2013-06-06 22:52:00,50.0,40.0,29.77,West,281,2.0,5.0,69,0.00,,,0.19,,2013-06-07 06:52:00,
2013-06-06 23:00:00,48.0,41.0,29.78,West,278,1.0,3.0,75,0.00,,,0.19,,2013-06-07 07:00:00,
2013-06-06 23:32:00,48.0,41.0,29.78,West,278,1.0,3.0,75,0.00,,,0.19,,2013-06-07 07:32:00,
2013-06-06 23:42:00,48.0,41.0,29.78,West,278,1.0,3.0,75,0.00,,,0.19,,2013-06-07 07:42:00,
2013-06-06 23:52:00,48.0,41.0,29.78,West,278,1.0,3.0,75,0.00,,,0.19,,2013-06-07 07:52:00,